Corpus Christi, TX

4:59 AM CDT on September 21, 2017 (GMT -0500)
Corpus Christi International

Weather History for KCRP - March, 2012

Change the Weather History Date:

Tuesday, March 20, 2012

  Actual Average Record
Temperature  
Mean Temperature 68 °F 67 °F  
Max Temperature 75 °F 77 °F 99 °F (1976)
Min Temperature 61 °F 57 °F 30 °F (1965)
Degree Days  
Heating Degree Days 0 2  
Month to date heating degree days 23 63  
Since 1 July heating degree days 611 863  
Cooling Degree Days 3 4  
Month to date cooling degree days 152 64  
Year to date cooling degree days 297 140  
Growing Degree Days 18 (Base 50)    
Moisture  
Dew Point 59 °F    
Average Humidity 73    
Maximum Humidity 97    
Minimum Humidity 49    
Precipitation  
Precipitation 0.54 in 0.06 in 0.54 in (2012)
Month to date precipitation 0.90 1.25  
Year to date precipitation 5.44 4.72  
Snow  
Snow 0.00 in - - ()
Month to date snowfall 0.0  
Since 1 July snowfall 0.0  
Snow Depth 0.00 in    
Sea Level Pressure  
Sea Level Pressure 29.71 in    
Wind  
Wind Speed 16 mph (North)    
Max Wind Speed 39 mph    
Max Gust Speed 54 mph    
Visibility 10 miles    
Events Rain , Thunderstorm    
T = Trace of Precipitation, MM = Missing Value Source: NWS Daily Summary

Daily Weather History Graph

Daily Weather History Graph

Search for Another Location

Airport or City:

Trip Planner

Search our weather history database for the weather conditions in past years. The results will help you decide how hot, cold, wet, or windy it might be!

Date:

Astronomy

Mar. 20, 2012 Rise Set
Actual Time 7:33 AM CDT 7:41 PM CDT
Civil Twilight 7:09 AM CDT 8:04 PM CDT
Nautical Twilight 6:42 AM CDT 8:32 PM CDT
Astronomical Twilight 6:15 AM CDT 8:59 PM CDT
Moon 6:09 AM CDT (3/20) 6:15 PM CDT (3/20)
Length of Visible Light 12h 55m
Length of Day
12h 08m
Waning Crescent, 4% of the Moon is Illuminated
Mar 20
Waning Crescent
Mar 22
New
Mar 30
First Quarter
Apr 6
Full
Apr 13
Last Quarter

Hourly Weather History & Observations

Time (CDT) Temp. Dew Point Humidity Pressure Visibility Wind Dir Wind Speed Gust Speed Precip Events Conditions
12:51 AM 75.0 °F 69.1 °F 82% 29.59 in 10.0 mi SSE 29.9 mph 43.7 mph N/A   Overcast
1:29 AM 73.4 °F 69.8 °F 88% 29.60 in 10.0 mi SSE 27.6 mph 40.3 mph N/A   Overcast
1:51 AM 73.9 °F 69.1 °F 85% 29.61 in 10.0 mi SSE 29.9 mph 40.3 mph N/A   Overcast
2:51 AM 73.9 °F 69.1 °F 85% 29.57 in 10.0 mi SSE 29.9 mph 38.0 mph N/A   Overcast
3:51 AM 73.9 °F 69.1 °F 85% 29.57 in 10.0 mi South 28.8 mph 38.0 mph N/A   Overcast
4:51 AM 73.9 °F 68.0 °F 82% 29.53 in 10.0 mi SSE 32.2 mph 40.3 mph N/A   Overcast
5:08 AM 73.4 °F 68.0 °F 83% 29.53 in 10.0 mi SSE 32.2 mph 50.6 mph N/A   Overcast
5:26 AM 71.6 °F 64.4 °F 78% 29.62 in 8.0 mi NNW 39.1 mph 54.1 mph N/A   Overcast
5:40 AM 62.6 °F 60.8 °F 94% 29.65 in 4.0 mi NNW 23.0 mph 44.9 mph 0.03 in Rain , Thunderstorm Heavy Thunderstorms and Rain
5:51 AM 62.1 °F 60.1 °F 93% 29.64 in 7.0 mi NNW 20.7 mph 26.5 mph 0.09 in Rain , Thunderstorm Thunderstorms and Rain
6:51 AM 61.0 °F 59.0 °F 93% 29.68 in 6.0 mi North 20.7 mph 26.5 mph 0.42 in Rain , Thunderstorm Heavy Thunderstorms and Rain
7:48 AM 60.8 °F 57.2 °F 88% 29.70 in 10.0 mi NNE 21.9 mph - 0.02 in Rain Light Rain
7:51 AM 61.0 °F 57.0 °F 87% 29.70 in 10.0 mi NNE 19.6 mph 28.8 mph 0.02 in Rain Light Rain
8:07 AM 60.8 °F 57.2 °F 88% 29.73 in 10.0 mi NE 16.1 mph 24.2 mph 0.00 in   Overcast
8:27 AM 60.8 °F 57.2 °F 88% 29.72 in 10.0 mi North 18.4 mph 28.8 mph 0.01 in   Mostly Cloudy
8:41 AM 60.8 °F 57.2 °F 88% 29.74 in 10.0 mi North 17.3 mph - 0.01 in   Overcast
8:51 AM 61.0 °F 57.9 °F 90% 29.74 in 10.0 mi North 17.3 mph - 0.01 in   Mostly Cloudy
9:25 AM 62.6 °F 57.2 °F 82% 29.76 in 10.0 mi North 15.0 mph - N/A   Overcast
9:45 AM 62.6 °F 57.2 °F 82% 29.78 in 10.0 mi North 11.5 mph - N/A   Overcast
9:51 AM 63.0 °F 59.0 °F 87% 29.77 in 10.0 mi North 12.7 mph - N/A   Overcast
10:40 AM 64.4 °F 59.0 °F 83% 29.79 in 10.0 mi North 12.7 mph - N/A   Overcast
10:51 AM 64.0 °F 59.0 °F 84% 29.78 in 10.0 mi North 13.8 mph - N/A   Overcast
11:51 AM 66.9 °F 60.1 °F 79% 29.78 in 10.0 mi North 12.7 mph - N/A   Mostly Cloudy
12:51 PM 68.0 °F 59.0 °F 73% 29.77 in 10.0 mi North 12.7 mph - N/A   Mostly Cloudy
1:46 PM 69.8 °F 59.0 °F 68% 29.76 in 10.0 mi NNE 11.5 mph - N/A   Mostly Cloudy
1:51 PM 70.0 °F 57.9 °F 65% 29.76 in 10.0 mi North 9.2 mph - N/A   Mostly Cloudy
2:51 PM 72.0 °F 57.9 °F 61% 29.74 in 10.0 mi NNW 13.8 mph - N/A   Mostly Cloudy
3:51 PM 71.1 °F 57.9 °F 63% 29.72 in 10.0 mi NNW 16.1 mph - N/A   Scattered Clouds
4:51 PM 72.0 °F 53.1 °F 51% 29.73 in 10.0 mi NNE 16.1 mph - N/A   Scattered Clouds
5:51 PM 72.0 °F 51.1 °F 48% 29.72 in 10.0 mi North 18.4 mph - N/A   Mostly Cloudy
6:51 PM 70.0 °F 51.1 °F 51% 29.75 in 10.0 mi North 11.5 mph - N/A   Mostly Cloudy
7:51 PM 69.1 °F 52.0 °F 54% 29.78 in 10.0 mi NNE 10.4 mph - N/A   Mostly Cloudy
8:51 PM 68.0 °F 53.1 °F 59% 29.78 in 10.0 mi North 11.5 mph - N/A   Mostly Cloudy
9:51 PM 66.0 °F 50.0 °F 56% 29.82 in 10.0 mi NNW 5.8 mph - N/A   Overcast
10:51 PM 66.0 °F 52.0 °F 60% 29.84 in 10.0 mi North 6.9 mph - N/A   Overcast
11:51 PM 64.0 °F 54.0 °F 70% 29.87 in 10.0 mi NW 4.6 mph - N/A   Overcast